THY42N LTAC-LTFM

Flight info

Callsign THY42N
Flight time 0h 47m
Altitude 28000
Route YAVRU A4 ERSEN
Aircraft A320/M-SDE3FGHIRWY/LB1

Departure

Time 2026-05-07 13:05
Airport Esenboğa International Airport (LTAC)

Arrival

Time 2026-05-07 13:52
Airport İstanbul Airport (LTFM)
Time Latitude Longitude Altitude Speed Heading
2026-05-07 12:34 40.11602 32.99123 3127 ft 0 kts 147°
2026-05-07 12:51 40.11618 32.99110 3125 ft 4 kts 142°
2026-05-07 12:51 40.11638 32.99087 3126 ft 4 kts 129°
2026-05-07 12:52 40.11650 32.99058 3123 ft 4 kts 91°
2026-05-07 12:52 40.11647 32.99040 3126 ft 1 kts 55°
2026-05-07 12:52 40.11646 32.99037 3126 ft 0 kts 55°
2026-05-07 12:55 40.11661 32.99065 3125 ft 9 kts 55°
2026-05-07 12:55 40.11723 32.99127 3123 ft 13 kts 355°
2026-05-07 12:55 40.11793 32.99063 3128 ft 12 kts 307°
2026-05-07 12:56 40.11861 32.99057 3129 ft 12 kts 32°
2026-05-07 12:56 40.11932 32.99124 3126 ft 6 kts 37°
2026-05-07 12:56 40.11970 32.99160 3126 ft 7 kts 36°
2026-05-07 12:56 40.12024 32.99211 3125 ft 13 kts 36°
2026-05-07 12:57 40.12106 32.99289 3123 ft 16 kts 36°
2026-05-07 12:57 40.12202 32.99380 3125 ft 17 kts 36°
2026-05-07 12:57 40.12303 32.99477 3123 ft 19 kts 36°
2026-05-07 12:57 40.12389 32.99559 3125 ft 15 kts 36°
2026-05-07 12:58 40.12468 32.99634 3128 ft 14 kts 36°
2026-05-07 12:58 40.12549 32.99712 3128 ft 15 kts 36°
2026-05-07 12:58 40.12636 32.99795 3129 ft 16 kts 36°
2026-05-07 12:58 40.12727 32.99882 3129 ft 17 kts 36°
2026-05-07 12:59 40.12828 32.99977 3127 ft 17 kts 36°
2026-05-07 12:59 40.12926 33.00071 3127 ft 19 kts 36°
2026-05-07 12:59 40.13032 33.00172 3127 ft 19 kts 36°
2026-05-07 12:59 40.13125 33.00261 3129 ft 16 kts 36°
2026-05-07 13:00 40.13218 33.00350 3129 ft 17 kts 36°
2026-05-07 13:00 40.13313 33.00440 3133 ft 16 kts 37°
2026-05-07 13:00 40.13409 33.00532 3133 ft 18 kts 36°
2026-05-07 13:00 40.13516 33.00634 3133 ft 20 kts 36°
2026-05-07 13:01 40.13626 33.00739 3130 ft 19 kts 36°
2026-05-07 13:01 40.13732 33.00839 3129 ft 16 kts 36°
2026-05-07 13:01 40.13827 33.00930 3126 ft 18 kts 36°
2026-05-07 13:01 40.13932 33.01030 3129 ft 19 kts 37°
2026-05-07 13:02 40.14001 33.01075 3131 ft 7 kts 11°
2026-05-07 13:02 40.14052 33.01064 3132 ft 8 kts 340°
2026-05-07 13:02 40.14095 33.01015 3132 ft 9 kts 302°
2026-05-07 13:02 40.14116 33.00929 3131 ft 12 kts 293°
2026-05-07 13:03 40.14169 33.00830 3125 ft 13 kts 306°
2026-05-07 13:03 40.14216 33.00720 3126 ft 14 kts 268°
2026-05-07 13:03 40.14172 33.00647 3125 ft 8 kts 214°
2026-05-07 13:03 40.14163 33.00640 3125 ft 0 kts 215°
2026-05-07 13:04 40.14161 33.00637 3124 ft 5 kts 215°
2026-05-07 13:04 40.13957 33.00442 3123 ft 72 kts 217°
2026-05-07 13:04 40.13381 32.99895 3126 ft 130 kts 216°
2026-05-07 13:04 40.12524 32.99068 3166 ft 171 kts 215°
2026-05-07 13:05 40.11587 32.98156 3772 ft 167 kts 218°
2026-05-07 13:05 40.10669 32.97264 4558 ft 161 kts 218°
2026-05-07 13:05 40.09759 32.96422 5054 ft 169 kts 216°
2026-05-07 13:05 40.08730 32.95456 5233 ft 194 kts 216°
2026-05-07 13:06 40.07567 32.94364 5464 ft 218 kts 218°
2026-05-07 13:06 40.06269 32.93144 5865 ft 239 kts 217°
2026-05-07 13:06 40.04895 32.91850 6599 ft 247 kts 217°
2026-05-07 13:06 40.03493 32.90531 7391 ft 250 kts 217°
2026-05-07 13:07 40.02175 32.89031 7849 ft 251 kts 238°
2026-05-07 13:07 40.01690 32.86865 8344 ft 259 kts 273°
2026-05-07 13:07 40.02244 32.84576 8871 ft 273 kts 298°
2026-05-07 13:07 40.03312 32.82490 9609 ft 280 kts 307°
2026-05-07 13:08 40.04547 32.80503 10337 ft 286 kts 309°
2026-05-07 13:08 40.05882 32.78439 10582 ft 309 kts 310°
2026-05-07 13:08 40.07285 32.76229 11043 ft 320 kts 309°
2026-05-07 13:08 40.08686 32.73941 11714 ft 324 kts 307°
2026-05-07 13:09 40.10071 32.71602 12425 ft 327 kts 307°
2026-05-07 13:09 40.11451 32.69217 13150 ft 330 kts 306°
2026-05-07 13:09 40.12834 32.66794 13848 ft 334 kts 306°
2026-05-07 13:09 40.14228 32.64335 14454 ft 339 kts 306°
2026-05-07 13:10 40.15633 32.61845 15072 ft 342 kts 306°
2026-05-07 13:10 40.17052 32.59330 15678 ft 345 kts 306°
2026-05-07 13:10 40.18484 32.56798 16079 ft 347 kts 306°
2026-05-07 13:10 40.19923 32.54263 16158 ft 346 kts 307°
2026-05-07 13:11 40.21546 32.51934 16168 ft 346 kts 316°
2026-05-07 13:11 40.23306 32.49783 16166 ft 346 kts 316°
2026-05-07 13:11 40.25065 32.47626 16166 ft 347 kts 316°
2026-05-07 13:11 40.26825 32.45457 16167 ft 348 kts 316°
2026-05-07 13:12 40.28580 32.43287 16162 ft 347 kts 316°
2026-05-07 13:12 40.30334 32.41118 16159 ft 347 kts 316°
2026-05-07 13:12 40.32089 32.38949 16160 ft 346 kts 316°
2026-05-07 13:12 40.33843 32.36781 16162 ft 347 kts 316°
2026-05-07 13:13 40.35596 32.34611 16162 ft 347 kts 316°
2026-05-07 13:13 40.37348 32.32440 16158 ft 347 kts 316°
2026-05-07 13:13 40.39098 32.30265 16161 ft 347 kts 316°
2026-05-07 13:13 40.40825 32.28119 16171 ft 348 kts 316°
2026-05-07 13:14 40.42595 32.25919 16701 ft 351 kts 316°
2026-05-07 13:14 40.44369 32.23714 17415 ft 351 kts 316°
2026-05-07 13:14 40.46113 32.21463 18055 ft 353 kts 311°
2026-05-07 13:14 40.47565 32.18844 18635 ft 357 kts 300°
2026-05-07 13:15 40.48614 32.15883 19197 ft 360 kts 292°
2026-05-07 13:15 40.49522 32.12811 19797 ft 361 kts 292°
2026-05-07 13:15 40.50437 32.09723 20386 ft 363 kts 292°
2026-05-07 13:15 40.51353 32.06627 20991 ft 365 kts 293°
2026-05-07 13:16 40.52274 32.03507 21575 ft 366 kts 293°
2026-05-07 13:16 40.53198 32.00378 22136 ft 368 kts 294°
2026-05-07 13:16 40.54124 31.97240 22739 ft 369 kts 294°
2026-05-07 13:16 40.55054 31.94086 23290 ft 370 kts 294°
2026-05-07 13:17 40.55988 31.90914 23820 ft 373 kts 294°
2026-05-07 13:17 40.56924 31.87727 24283 ft 375 kts 294°
2026-05-07 13:17 40.57865 31.84521 24750 ft 376 kts 294°
2026-05-07 13:17 40.58784 31.81289 25195 ft 378 kts 293°
2026-05-07 13:18 40.59625 31.78052 25628 ft 380 kts 292°
2026-05-07 13:18 40.60437 31.74733 26068 ft 382 kts 291°
2026-05-07 13:18 40.61239 31.71386 26490 ft 384 kts 291°
2026-05-07 13:18 40.62043 31.68023 26908 ft 385 kts 291°
2026-05-07 13:19 40.62852 31.64658 27306 ft 387 kts 291°
2026-05-07 13:19 40.63674 31.61274 27669 ft 389 kts 292°
2026-05-07 13:19 40.64225 31.59023 27936 ft 390 kts 292°
2026-05-07 13:19 40.65063 31.55621 28115 ft 392 kts 292°
2026-05-07 13:20 40.66756 31.48743 28145 ft 396 kts 292°
2026-05-07 13:20 40.68445 31.41839 28132 ft 396 kts 292°
2026-05-07 13:21 40.70130 31.34914 28143 ft 397 kts 292°
2026-05-07 13:21 40.71822 31.27988 28143 ft 396 kts 292°
2026-05-07 13:22 40.73500 31.21104 28138 ft 397 kts 291°
2026-05-07 13:22 40.75190 31.14173 28138 ft 397 kts 292°
2026-05-07 13:23 40.76863 31.07231 28117 ft 397 kts 291°
2026-05-07 13:23 40.78523 31.00291 28133 ft 396 kts 291°
2026-05-07 13:24 40.80186 30.93353 28146 ft 396 kts 291°
2026-05-07 13:24 40.81852 30.86412 28141 ft 396 kts 291°
2026-05-07 13:25 40.83504 30.79469 28140 ft 396 kts 291°
2026-05-07 13:25 40.85141 30.72586 28139 ft 396 kts 291°
2026-05-07 13:26 40.86657 30.65565 28111 ft 402 kts 283°
2026-05-07 13:26 40.87387 30.58246 27782 ft 395 kts 282°
2026-05-07 13:27 40.87729 30.54670 27260 ft 389 kts 282°
2026-05-07 13:27 40.88067 30.51144 27082 ft 386 kts 282°
2026-05-07 13:27 40.88606 30.47693 27015 ft 382 kts 291°
2026-05-07 13:27 40.89633 30.44495 26408 ft 376 kts 302°
2026-05-07 13:28 40.91130 30.41691 25827 ft 371 kts 313°
2026-05-07 13:28 40.92861 30.39177 25274 ft 370 kts 314°
2026-05-07 13:28 40.94579 30.36652 24758 ft 368 kts 313°
2026-05-07 13:28 40.96274 30.34127 24268 ft 366 kts 312°
2026-05-07 13:29 40.97677 30.31349 23615 ft 364 kts 297°
2026-05-07 13:29 40.98351 30.28120 22689 ft 368 kts 279°
2026-05-07 13:29 40.98181 30.24747 22137 ft 364 kts 264°
2026-05-07 13:29 40.97748 30.21558 21948 ft 342 kts 265°
2026-05-07 13:30 40.97368 30.18548 21445 ft 332 kts 266°
2026-05-07 13:30 40.97009 30.15551 20810 ft 327 kts 266°
2026-05-07 13:30 40.96661 30.12586 20168 ft 326 kts 266°
2026-05-07 13:30 40.96316 30.09646 19656 ft 324 kts 266°
2026-05-07 13:31 40.95963 30.06688 19138 ft 322 kts 265°
2026-05-07 13:31 40.95609 30.03769 18651 ft 321 kts 265°
2026-05-07 13:31 40.95251 30.00858 18127 ft 319 kts 265°
2026-05-07 13:31 40.94889 29.97973 17592 ft 317 kts 265°
2026-05-07 13:32 40.94531 29.95101 17063 ft 315 kts 264°
2026-05-07 13:32 40.94177 29.92255 16569 ft 312 kts 264°
2026-05-07 13:32 40.93875 29.89466 16167 ft 306 kts 270°
2026-05-07 13:32 40.93766 29.86649 15926 ft 308 kts 271°
2026-05-07 13:33 40.93682 29.83823 15676 ft 307 kts 271°
2026-05-07 13:33 40.93608 29.81001 15417 ft 307 kts 271°
2026-05-07 13:33 40.93535 29.78184 15171 ft 306 kts 271°
2026-05-07 13:33 40.93461 29.75383 14930 ft 305 kts 271°
2026-05-07 13:34 40.93386 29.72588 14684 ft 302 kts 270°
2026-05-07 13:34 40.93240 29.67285 14203 ft 280 kts 270°
2026-05-07 13:34 40.93169 29.64729 13967 ft 277 kts 270°
2026-05-07 13:35 40.93097 29.62186 13705 ft 276 kts 270°
2026-05-07 13:35 40.93025 29.59659 13444 ft 274 kts 270°
2026-05-07 13:35 40.92953 29.57147 13180 ft 273 kts 270°
2026-05-07 13:35 40.92880 29.54636 12925 ft 272 kts 270°
2026-05-07 13:36 40.92807 29.52177 12607 ft 271 kts 270°
2026-05-07 13:36 40.92734 29.49677 12241 ft 272 kts 270°
2026-05-07 13:36 40.92658 29.47168 11855 ft 274 kts 270°
2026-05-07 13:36 40.92583 29.44678 11472 ft 268 kts 270°
2026-05-07 13:37 40.92507 29.42231 11094 ft 266 kts 270°
2026-05-07 13:37 40.92430 29.39800 10721 ft 263 kts 270°
2026-05-07 13:37 40.92354 29.37390 10426 ft 259 kts 270°
2026-05-07 13:37 40.92279 29.35029 10353 ft 255 kts 270°
2026-05-07 13:38 40.92204 29.32733 10227 ft 247 kts 270°
2026-05-07 13:38 40.92129 29.30453 10139 ft 248 kts 270°
2026-05-07 13:38 40.92054 29.28175 10035 ft 247 kts 270°
2026-05-07 13:38 40.91982 29.25892 9739 ft 251 kts 270°
2026-05-07 13:39 40.91908 29.23589 9447 ft 250 kts 269°
2026-05-07 13:39 40.91833 29.21295 9116 ft 250 kts 269°
2026-05-07 13:39 40.91756 29.19002 8728 ft 249 kts 269°
2026-05-07 13:39 40.91679 29.16727 8347 ft 247 kts 269°
2026-05-07 13:40 40.91604 29.14468 7975 ft 245 kts 269°
2026-05-07 13:40 40.91529 29.12229 7607 ft 242 kts 269°
2026-05-07 13:40 40.91454 29.10022 7243 ft 238 kts 269°
2026-05-07 13:40 40.91380 29.07869 6846 ft 233 kts 269°
2026-05-07 13:41 40.91308 29.05720 6363 ft 232 kts 269°
2026-05-07 13:41 40.91239 29.03642 6166 ft 228 kts 269°
2026-05-07 13:41 40.91165 29.01551 6043 ft 227 kts 266°
2026-05-07 13:41 40.90844 28.99474 5961 ft 228 kts 256°
2026-05-07 13:42 40.90415 28.97449 5904 ft 228 kts 256°
2026-05-07 13:42 40.89989 28.95428 5842 ft 228 kts 256°
2026-05-07 13:42 40.89563 28.93401 5791 ft 230 kts 256°
2026-05-07 13:42 40.89139 28.91393 5731 ft 229 kts 256°
2026-05-07 13:43 40.88710 28.89367 5675 ft 229 kts 256°
2026-05-07 13:43 40.88285 28.87342 5616 ft 228 kts 256°
2026-05-07 13:43 40.87859 28.85319 5557 ft 228 kts 256°
2026-05-07 13:43 40.87521 28.83284 5491 ft 226 kts 269°
2026-05-07 13:44 40.87839 28.81275 5440 ft 226 kts 296°
2026-05-07 13:44 40.88861 28.79709 5380 ft 229 kts 324°
2026-05-07 13:44 40.90283 28.78738 5325 ft 231 kts 331°
2026-05-07 13:44 40.91733 28.77817 5258 ft 231 kts 331°
2026-05-07 13:45 40.93169 28.76868 5195 ft 230 kts 329°
2026-05-07 13:45 40.94558 28.75819 5094 ft 230 kts 327°
2026-05-07 13:45 40.95926 28.74730 5004 ft 229 kts 326°
2026-05-07 13:45 40.97286 28.73707 5000 ft 220 kts 335°
2026-05-07 13:46 40.98743 28.73328 4998 ft 209 kts 355°
2026-05-07 13:46 41.00137 28.73300 5042 ft 190 kts 355°
2026-05-07 13:46 41.01408 28.73266 4987 ft 176 kts 354°
2026-05-07 13:46 41.02617 28.73237 4823 ft 172 kts 354°
2026-05-07 13:47 41.03805 28.73211 4604 ft 169 kts 354°
2026-05-07 13:47 41.04988 28.73187 4396 ft 170 kts 354°
2026-05-07 13:47 41.06170 28.73164 4175 ft 169 kts 354°
2026-05-07 13:47 41.07342 28.73141 3951 ft 168 kts 353°
2026-05-07 13:48 41.08512 28.73118 3733 ft 168 kts 354°
2026-05-07 13:48 41.09682 28.73096 3514 ft 168 kts 354°
2026-05-07 13:48 41.10844 28.73073 3293 ft 169 kts 354°
2026-05-07 13:48 41.12015 28.73051 3068 ft 168 kts 355°
2026-05-07 13:49 41.13181 28.73028 2843 ft 167 kts 355°
2026-05-07 13:49 41.14340 28.73006 2628 ft 164 kts 355°
2026-05-07 13:49 41.15475 28.72984 2403 ft 161 kts 355°
2026-05-07 13:49 41.16571 28.72964 2201 ft 155 kts 355°
2026-05-07 13:50 41.17629 28.72944 1986 ft 148 kts 355°
2026-05-07 13:50 41.18660 28.72923 1836 ft 148 kts 356°
2026-05-07 13:50 41.19673 28.72903 1619 ft 144 kts 356°
2026-05-07 13:50 41.20677 28.72883 1426 ft 145 kts 356°
2026-05-07 13:51 41.21685 28.72863 1234 ft 146 kts 356°
2026-05-07 13:51 41.22686 28.72844 1040 ft 142 kts 359°
2026-05-07 13:51 41.23668 28.72825 848 ft 139 kts
2026-05-07 13:51 41.24632 28.72807 679 ft 139 kts
2026-05-07 13:52 41.25576 28.72791 501 ft 136 kts
2026-05-07 13:52 41.26526 28.72764 361 ft 137 kts
2026-05-07 13:52 41.27362 28.72751 330 ft 97 kts 359°
2026-05-07 13:52 41.27859 28.72741 330 ft 41 kts
2026-05-07 13:53 41.28007 28.72793 334 ft 18 kts 22°
2026-05-07 13:53 41.28079 28.72844 333 ft 10 kts 30°
2026-05-07 13:53 41.28123 28.72878 330 ft 8 kts 31°
2026-05-07 13:53 41.28144 28.72948 334 ft 9 kts 119°
2026-05-07 13:54 41.28076 28.72961 331 ft 11 kts 179°
2026-05-07 13:54 41.27991 28.72963 333 ft 10 kts 179°
2026-05-07 13:54 41.27915 28.72964 333 ft 12 kts 179°
2026-05-07 13:54 41.27823 28.72967 333 ft 14 kts 179°
2026-05-07 13:55 41.27715 28.72969 331 ft 17 kts 179°
2026-05-07 13:55 41.27603 28.72972 333 ft 15 kts 179°
2026-05-07 13:55 41.27488 28.72974 333 ft 18 kts 179°
2026-05-07 13:55 41.27388 28.72977 331 ft 15 kts 179°
2026-05-07 13:56 41.27277 28.72979 333 ft 17 kts 179°
2026-05-07 13:56 41.27165 28.72982 332 ft 17 kts 179°
2026-05-07 13:56 41.27041 28.72985 331 ft 19 kts 179°
2026-05-07 13:56 41.26968 28.72998 331 ft 10 kts 146°
2026-05-07 13:57 41.26953 28.73090 334 ft 12 kts 90°
2026-05-07 13:57 41.26955 28.73213 334 ft 15 kts 89°
2026-05-07 13:57 41.26938 28.73321 332 ft 12 kts 141°
2026-05-07 13:57 41.26848 28.73331 330 ft 14 kts 178°
2026-05-07 13:58 41.26741 28.73334 332 ft 16 kts 179°
2026-05-07 13:58 41.26626 28.73343 333 ft 18 kts 167°
2026-05-07 13:58 41.26544 28.73378 331 ft 10 kts 161°
2026-05-07 13:58 41.26472 28.73411 331 ft 12 kts 161°
2026-05-07 13:59 41.26385 28.73451 332 ft 15 kts 161°
2026-05-07 13:59 41.26326 28.73481 333 ft 5 kts 144°
2026-05-07 13:59 41.26326 28.73527 332 ft 7 kts 72°
2026-05-07 13:59 41.26337 28.73570 334 ft 2 kts 71°
2026-05-07 14:00 41.26339 28.73576 334 ft 0 kts 70°